Regional Weather Roundup
Issued by NWS Charleston, SC

Current Version | Previous Version | Graphics & Text | Print | Product List | Glossary On
Versions: 1 2 3 4 5 6 7 8 9 10 11 12 13 14 15 16 17 18 19 20 21 22 23 24 25 26 27 28 29 30 31 32 33 34 35 36 37 38 39 40 41 42 43 44 45 46 47 48 49 50
000
ASUS42 KCHS 071927
RWRCHS

REGIONAL WEATHER ROUNDUP
NATIONAL WEATHER SERVICE CHARLESTON SC
200 PM EST WED DEC 07 2016

NOTE: "FAIR" INDICATES FEW OR NO CLOUDS BELOW 12,000 FEET WITH NO
SIGNIFICANT WEATHER AND/OR OBSTRUCTIONS TO VISIBILITY.

NOT ALL STATIONS ARE QUALITY CONTROLLED. USE DATA WITH CAUTION...
ESPECIALLY DEWPOINT OBSERVATIONS.

SCZ027-030-031-034>040-042>050-072000-
...SOUTHEAST SOUTH CAROLINA...

CITY           SKY/WX    TMP DP  RH WIND       PRES   REMARKS
N CHARLESTON   MOSUNNY   59  48  67 CALM      30.05S
WATERFRONT PRK   N/A     57  50  77 SE6       30.04F
MOUNT PLEASANT FAIR      61  48  63 SE5       30.05S
JOHNS ISLAND   FAIR      59  50  72 NE5       30.05S
PINOPOLIS        N/A     54  52  94 NW5       29.96F
MONCKS CORNER  CLOUDY    59  48  67 S8        30.04F
SUMMERVILLE    CLOUDY    54  54 100 SW5       30.06F
BEAUFORT MCAS  CLOUDY    60  54  80 NE5       30.04F
BEAUFORT ARPT  CLOUDY    57  54  88 NE7       30.04S FOG
HILTON HEAD IS CLOUDY    61  55  82 N7        30.05F
WALTERBORO     CLOUDY    55 N/A N/A SE3       30.06S HAZE
ALLENDALE      CLOUDY    55  54  94 VRB3      30.04S FOG

...SOUTHERN MIDLANDS AND PEE DEE...

CITY           SKY/WX    TMP DP  RH WIND       PRES   REMARKS
GEORGETOWN     NOT AVBL
KINGSTREE      FAIR      61  45  55 NE3       30.03F
ORANGEBURG     CLOUDY    54  49  83 SE5       30.04F
BARNWELL       NOT AVBL
AIKEN          CLOUDY    50  50 100 SE3       30.07S FOG
MANNING        FAIR      57  46  67 SW7       30.04S
COLUMBIA       PTSUNNY   56  47  71 VRB5      30.04F
SUMTER         SUNNY     61  46  57 VRB3      30.01F
FLORENCE       SUNNY     62  45  53 NE6       30.03F
MYRTLE BEACH   SUNNY     61  46  59 S9        30.05F
N MYRTLE BEACH SUNNY     60  47  61 S7        30.03S

$$

GAZ063-065-086>088-099>101-113>116-118-119-134>141-150-072000-
...SOUTHEAST GEORGIA...

CITY           SKY/WX    TMP DP  RH WIND       PRES   REMARKS
SAVANNAH ARPT  CLOUDY    63  54  72 CALM      30.03F
HUNTER AAF     CLOUDY    64  59  83 W5        30.01S
FORT STEWART   CLOUDY    66  55  69 CALM      30.00F
STATESBORO     CLOUDY    64  55  72 S5        30.02
SYLVANIA       CLOUDY   N/A N/A N/A CALM      30.04S
CLAXTON        MOCLDY    66  57  71 S3        30.03S

...CSRA...CENTRAL AND FAR SOUTHEAST GEORGIA...

CITY           SKY/WX    TMP DP  RH WIND       PRES   REMARKS
THOMSON        CLOUDY    54  54 100 CALM      30.08F
AUGUSTA-BUSH   CLOUDY    56  51  84 S7        30.04F HAZE
AUGUSTA-DANIEL CLOUDY    54  50  86 S3        30.04F FOG
SWAINSBORO     MOCLDY    64  52  63 W3        30.03S
VIDALIA        SUNNY     66  57  72 W3        30.03F
EASTMAN        FAIR      66  43  42 W6        30.05F
HAZLEHURST     FAIR      69  56  63 CALM      30.02F
ALMA           PTSUNNY   68  55  63 SW8       30.03S
WAYCROSS       SUNNY     73  60  63 W5        30.02S
JESUP          FAIR      70  61  73 NW6       30.03S
BAXLEY         PTSUNNY   68  59  73 W6        30.03S
BRUNSWICK      MOSUNNY   70  61  73 S5        30.03S
SAINT SIMONS   PTSUNNY   66  56  70 E5        30.02F

$$

SCZ027-028-034-036>038-045-046-048>050-GAZ119-141-072000-
...LAKE AND SUPPLEMENTAL COASTAL OBSERVATIONS...

STATION/POSITION TIME  TEMP    WIND        PRES    WAVE   SWELL
                       AIR SEA DIR/SP/G            HT/PER HT/PER/DIR
                 (UTC) (F)     (DEG/KT/KT) (MB)    (FT/S) (FT/S/D)
WINYAH BAY       1830   57     140/  4     1017.0S
LAKE MURRAY      1830   55     220/  2/  4 1016.6F
ACE BASIN NERRS  1845   55      20/  1     1017.0F
FORT PULASKI     1900   59 62  100/  7/  8 1017.3
SAPELO ISLAND    1900   67     100/  5     1017.0

$$

ANZ835-935-AMZ111-154-330-350-352-354-370-450-454-472-072000-
...C-MAN AND BUOY OBSERVATIONS...

STATION/POSITION TIME  TEMP    WIND        PRES    WAVE   SWELL
                       AIR SEA DIR/SP/G            HT/PER HT/PER/DIR
                 (UTC) (F)     (DEG/KT/KT) (MB)    (FT/S) (FT/S/D)
BUOY 41004       1850   62 74   30/  6/  8 1016.5F   2/ 8   2/120/ 8
BUOY 41008       1850   61 65   10/  4/  4 1016.6    2/ 5   2/160/ 5
FOLLY BEACH CMAN 1900   55      50/  1/  2 1018.2F
CAPERS NEARSHORE 1808   54 62   10/  2/  4 1017.5F
FRIPP NEARSHORE  1908   56 62   30/  8/ 10 1017.1R


STATION/POSITION TIME  TEMP    WIND        PRES    WAVE   SWELL
                       AIR SEA DIR/SP/G            HT/PER HT/PER/DIR
                 (UTC) (F)     (DEG/KT/KT) (MB)    (FT/S) (FT/S/D)
5E ST. MARYS GA  1900      67                N/A     2/14
FRYING PAN BUOY  1910   58 74   20/  8/ 12 1016.8
BUOY 41025       1850   56 76  350/ 14/ 21 1015.7F   6/10   5/ 70/10
CAPE LOOKOUT NC  1900   54      10/ 13/ 15 1016.0R
BUOY 41002       1850   71 74  310/ 14/ 17 1014.7R   7/ 8   7/260/ 8
BUOY 41010       NOT AVBL
ST AUGUSTINE FL  1900   65 68   70/  6/  7 1017.6F


$$



USA.gov is the U.S. government's official web portal to all federal, state and local government web resources and services.